Flag for Canada Weather past 2 weeks in Brandon, Manitoba, Canada

Now
28 °F

Ice fog.


Feels Like: 21 °F
Forecast: 23 / 28 °F
Wind: 7 mph from East

Location: Brandon

Current Time: Dec 22, 2014 at 5:06:18 AM

Latest Report: Dec 22, 2014 at 4:00 AM


Visibility: 1 mi

Pressure: 29.59 "Hg

Humidity: 100%

Dew point: 28 °F

Location of BrandonLocation

Historic Weather in Brandon — Graph

°F

Brandon temperature yesterday

Maximum temperature yesterday: 27 °F (at 5:00 AM)
Minimum temperature yesterday: 25 °F (at 12:00 AM)
Average temperature yesterday: 26 °F

Past Weeks' High & Low Weather Summary

 TemperatureHumidityPressure
High37 °F (Dec 13, 1:00 PM)100% (Dec 11, 11:00 AM)30.54 "Hg (Dec 11, 11:00 AM)
Low-8 °F (Dec 17, 7:00 AM)63% (Dec 15, 2:00 PM)29.57 "Hg (Dec 21, 3:00 PM)
Average17 °F88%30.08 "Hg
* Reported Dec 7 3:00 AM — Dec 22 3:00 AM, Brandon, Weather by CustomWeather, © 2014

Note: Actual official high and low records may vary slightly from our data, if they occured in-between our weather recording intervals... More about our weather records

Advertising

Brandon weather history for previous 24 hours

 ConditionsComfort  
Time TempWeatherWind HumidityBarometerVisibility
3:00 AM
Dec 22
28 °FIce fog.6 mph93%29.60 "Hg1 mi
2:00 AM27 °FIce fog.6 mph100%29.59 "Hg1 mi
1:00 AM27 °FIce fog.10 mph93%29.59 "Hg1 mi
12:00 AM25 °FIce fog.10 mph100%29.59 "Hg1 mi
11:00 PM
Dec 21
25 °FIce fog.10 mph93%29.59 "Hg1 mi
10:00 PM25 °FIce fog.10 mph93%29.58 "Hg1 mi
9:00 PM27 °FIce fog.13 mph93%29.57 "Hg2 mi
8:48 PM27 °FIce fog.9 mph93%29.57 "Hg2 mi
8:00 PM27 °FIce fog.14 mph93%29.57 "Hg6 mi
7:00 PM27 °FIce fog.14 mph93%29.58 "Hg4 mi
6:00 PM27 °FIce fog.10 mph93%29.58 "Hg1 mi
5:00 PM27 °FIce fog.10 mph93%29.57 "Hg0 mi
4:00 PM27 °FIce fog.13 mph100%29.57 "Hg0 mi
3:00 PM27 °FIce fog.8 mph100%29.57 "Hg0 mi
2:00 PM27 °FIce fog.7 mph100%29.57 "Hg0 mi
1:00 PM27 °FIce fog.6 mph100%29.59 "Hg0 mi
12:00 PM27 °FIce fog.6 mph100%29.62 "Hg0 mi
11:00 AM27 °FIce fog.6 mph100%29.64 "Hg0 mi
10:00 AM27 °FIce fog.3 mph100%29.65 "Hg0 mi
9:00 AM27 °FIce fog.3 mph100%29.64 "Hg0 mi
8:00 AM27 °FIce fog.3 mph100%29.66 "Hg0 mi
7:00 AM27 °FIce fog.3 mph93%29.67 "Hg0 mi
6:00 AM27 °FIce fog.2 mph93%29.69 "Hg2 mi
5:00 AM27 °FIce fog.3 mph93%29.70 "Hg2 mi
Weather by CustomWeather, © 2014

See weather overviewHow to use our weather pages